Time,TemperatureF,DewpointF,PressureIn,WindDirection,WindDirectionDegrees,WindSpeedMPH,WindSpeedGustMPH,Humidity,HourlyPrecipIn,Conditions,Clouds,dailyrainin,SolarRadiationWatts/m^2,SoftwareType,DateUTC
2013-02-11 00:21:00,22.0,20.0,-100.00,East,81,0.0,0.0,93,0.00,,,0.00,0.000000,,2013-02-11 08:21:00,
2013-02-11 00:31:00,22.0,20.0,-100.00,East,81,0.0,0.0,93,0.00,,,0.00,0.000000,,2013-02-11 08:31:00,
2013-02-11 00:42:00,22.0,20.0,-100.00,East,81,0.0,0.0,93,0.00,,,0.00,0.000000,,2013-02-11 08:42:00,
2013-02-11 00:52:00,22.0,20.0,-100.00,East,81,0.0,0.0,93,0.00,,,0.00,0.000000,,2013-02-11 08:52:00,
2013-02-11 01:12:00,22.0,21.0,-100.00,ESE,105,0.0,0.0,94,0.00,,,0.00,0.000000,,2013-02-11 09:12:00,
2013-02-11 01:21:00,22.0,21.0,-100.00,ESE,105,0.0,0.0,94,0.00,,,0.00,0.000000,,2013-02-11 09:21:00,
2013-02-11 01:31:00,22.0,21.0,-100.00,ESE,105,0.0,0.0,94,0.00,,,0.00,0.000000,,2013-02-11 09:31:00,
2013-02-11 01:41:00,22.0,21.0,-100.00,ESE,105,0.0,0.0,94,0.00,,,0.00,0.000000,,2013-02-11 09:41:00,
2013-02-11 01:51:00,22.0,21.0,-100.00,ESE,105,0.0,0.0,94,0.00,,,0.00,0.000000,,2013-02-11 09:51:00,
2013-02-11 02:21:00,21.0,19.0,-100.00,East,100,0.0,0.0,93,0.00,,,0.00,0.000000,,2013-02-11 10:21:00,
2013-02-11 02:31:00,21.0,19.0,-100.00,East,100,0.0,0.0,93,0.00,,,0.00,0.000000,,2013-02-11 10:31:00,
2013-02-11 02:41:00,21.0,19.0,-100.00,East,100,0.0,0.0,93,0.00,,,0.00,0.000000,,2013-02-11 10:41:00,
2013-02-11 02:51:00,21.0,19.0,-100.00,East,100,0.0,0.0,93,0.00,,,0.00,0.000000,,2013-02-11 10:51:00,
2013-02-11 03:22:00,21.0,19.0,-100.00,East,91,0.0,0.0,92,0.00,,,0.00,0.000000,,2013-02-11 11:22:00,
2013-02-11 03:32:00,21.0,19.0,-100.00,East,91,0.0,0.0,92,0.00,,,0.00,0.000000,,2013-02-11 11:32:00,
2013-02-11 03:42:00,21.0,19.0,-100.00,East,91,0.0,0.0,92,0.00,,,0.00,0.000000,,2013-02-11 11:42:00,
2013-02-11 03:52:00,21.0,19.0,-100.00,East,91,0.0,0.0,92,0.00,,,0.00,0.000000,,2013-02-11 11:52:00,
2013-02-11 04:22:00,21.0,20.0,-100.00,WNW,302,0.0,0.0,95,0.00,,,-99.99,0.000000,,2013-02-11 12:22:00,
2013-02-11 04:31:00,21.0,20.0,-100.00,WNW,302,0.0,0.0,95,0.00,,,-99.99,0.000000,,2013-02-11 12:31:00,
2013-02-11 04:42:00,21.0,20.0,-100.00,WNW,302,0.0,0.0,95,0.00,,,-99.99,0.000000,,2013-02-11 12:42:00,
2013-02-11 04:52:00,21.0,20.0,-100.00,WNW,302,0.0,0.0,95,0.00,,,-99.99,0.000000,,2013-02-11 12:52:00,
2013-02-11 05:21:00,19.0,17.0,-100.00,NE,53,0.0,4.0,91,0.00,,,-99.99,0.000000,,2013-02-11 13:21:00,
2013-02-11 05:32:00,19.0,17.0,-100.00,NE,53,0.0,4.0,91,0.00,,,-99.99,0.000000,,2013-02-11 13:32:00,
2013-02-11 05:41:00,19.0,17.0,-100.00,NE,53,0.0,4.0,91,0.00,,,-99.99,0.000000,,2013-02-11 13:41:00,
2013-02-11 05:51:00,19.0,17.0,-100.00,NE,53,0.0,4.0,91,0.00,,,-99.99,0.000000,,2013-02-11 13:51:00,
2013-02-11 06:21:00,19.0,17.0,-100.00,NE,53,0.0,0.0,91,0.00,,,-99.99,0.000000,,2013-02-11 14:21:00,
2013-02-11 06:32:00,19.0,17.0,-100.00,NE,53,0.0,0.0,91,0.00,,,-99.99,0.000000,,2013-02-11 14:32:00,
2013-02-11 06:42:00,19.0,17.0,-100.00,NE,53,0.0,0.0,91,0.00,,,-99.99,0.000000,,2013-02-11 14:42:00,
2013-02-11 06:52:00,19.0,17.0,-100.00,NE,53,0.0,0.0,91,0.00,,,-99.99,0.000000,,2013-02-11 14:52:00,
2013-02-11 07:22:00,20.0,19.0,-100.00,ESE,110,0.0,0.0,94,0.00,,,0.00,0.000000,,2013-02-11 15:22:00,
2013-02-11 07:32:00,20.0,19.0,-100.00,ESE,110,0.0,0.0,94,0.00,,,0.00,0.000000,,2013-02-11 15:32:00,
2013-02-11 07:42:00,20.0,19.0,-100.00,ESE,110,0.0,0.0,94,0.00,,,0.00,0.000000,,2013-02-11 15:42:00,
2013-02-11 07:52:00,20.0,19.0,-100.00,ESE,110,0.0,0.0,94,0.00,,,0.00,0.000000,,2013-02-11 15:52:00,
2013-02-11 08:21:00,21.0,20.0,-100.00,West,259,0.0,0.0,94,0.00,,,0.00,10.000000,,2013-02-11 16:21:00,
2013-02-11 08:32:00,21.0,20.0,-100.00,West,259,0.0,0.0,94,0.00,,,0.00,10.000000,,2013-02-11 16:32:00,
2013-02-11 08:42:00,21.0,20.0,-100.00,West,259,0.0,0.0,94,0.00,,,0.00,10.000000,,2013-02-11 16:42:00,
2013-02-11 08:52:00,21.0,20.0,-100.00,West,259,0.0,0.0,94,0.00,,,0.00,10.000000,,2013-02-11 16:52:00,
2013-02-11 09:21:00,22.0,20.0,-100.00,West,268,1.0,2.0,92,0.00,,,0.00,80.000000,,2013-02-11 17:21:00,
2013-02-11 09:32:00,22.0,20.0,-100.00,West,268,1.0,2.0,92,0.00,,,0.00,80.000000,,2013-02-11 17:32:00,
2013-02-11 09:42:00,22.0,20.0,-100.00,West,268,1.0,2.0,92,0.00,,,0.00,80.000000,,2013-02-11 17:42:00,
2013-02-11 09:52:00,22.0,20.0,-100.00,West,268,1.0,2.0,92,0.00,,,0.00,80.000000,,2013-02-11 17:52:00,
2013-02-11 10:21:00,23.0,21.0,-100.00,South,177,0.0,6.0,90,0.00,,,0.00,135.000000,,2013-02-11 18:21:00,
2013-02-11 10:32:00,23.0,21.0,-100.00,South,177,0.0,6.0,90,0.00,,,0.00,135.000000,,2013-02-11 18:32:00,
2013-02-11 10:42:00,23.0,21.0,-100.00,South,177,0.0,6.0,90,0.00,,,0.00,135.000000,,2013-02-11 18:42:00,
2013-02-11 10:52:00,23.0,21.0,-100.00,South,177,0.0,6.0,90,0.00,,,0.00,135.000000,,2013-02-11 18:52:00,
2013-02-11 11:21:00,25.0,22.0,-100.00,SW,214,0.0,5.0,89,0.00,,,0.00,179.000000,,2013-02-11 19:21:00,
2013-02-11 11:31:00,25.0,22.0,-100.00,SW,214,0.0,5.0,89,0.00,,,0.00,179.000000,,2013-02-11 19:31:00,
2013-02-11 11:41:00,25.0,22.0,-100.00,SW,214,0.0,5.0,89,0.00,,,0.00,179.000000,,2013-02-11 19:41:00,
2013-02-11 11:51:00,25.0,22.0,-100.00,SW,214,0.0,5.0,89,0.00,,,0.00,179.000000,,2013-02-11 19:51:00,
2013-02-11 12:21:00,28.0,25.0,-100.00,South,185,0.0,3.0,87,0.00,,,0.00,230.000000,,2013-02-11 20:21:00,
2013-02-11 12:31:00,28.0,25.0,-100.00,South,185,0.0,3.0,87,0.00,,,0.00,230.000000,,2013-02-11 20:31:00,
2013-02-11 12:41:00,28.0,25.0,-100.00,South,185,0.0,3.0,87,0.00,,,0.00,230.000000,,2013-02-11 20:41:00,
2013-02-11 12:52:00,28.0,25.0,-100.00,South,185,0.0,3.0,87,0.00,,,0.00,230.000000,,2013-02-11 20:52:00,
2013-02-11 13:21:00,27.0,23.0,-100.00,South,173,0.0,2.0,86,0.00,,,0.00,220.000000,,2013-02-11 21:21:00,
2013-02-11 13:31:00,27.0,23.0,-100.00,South,173,0.0,2.0,86,0.00,,,0.00,220.000000,,2013-02-11 21:31:00,
2013-02-11 13:41:00,27.0,23.0,-100.00,South,173,0.0,2.0,86,0.00,,,0.00,220.000000,,2013-02-11 21:41:00,
2013-02-11 13:51:00,27.0,23.0,-100.00,South,173,0.0,2.0,86,0.00,,,0.00,220.000000,,2013-02-11 21:51:00,
2013-02-11 14:21:00,27.0,23.0,-100.00,South,171,0.0,3.0,86,0.00,,,0.00,185.000000,,2013-02-11 22:21:00,
2013-02-11 14:32:00,27.0,23.0,-100.00,South,171,0.0,3.0,86,0.00,,,0.00,185.000000,,2013-02-11 22:32:00,
2013-02-11 14:41:00,27.0,23.0,-100.00,South,171,0.0,3.0,86,0.00,,,0.00,185.000000,,2013-02-11 22:41:00,
2013-02-11 14:52:00,27.0,23.0,-100.00,South,171,0.0,3.0,86,0.00,,,0.00,185.000000,,2013-02-11 22:52:00,
2013-02-11 15:21:00,26.0,23.0,-100.00,SSE,155,0.0,3.0,88,0.00,,,0.00,124.000000,,2013-02-11 23:21:00,
2013-02-11 15:31:00,26.0,23.0,-100.00,SSE,155,0.0,3.0,88,0.00,,,0.00,124.000000,,2013-02-11 23:31:00,
2013-02-11 15:41:00,26.0,23.0,-100.00,SSE,155,0.0,3.0,88,0.00,,,0.00,124.000000,,2013-02-11 23:41:00,
2013-02-11 15:52:00,26.0,23.0,-100.00,SSE,155,0.0,3.0,88,0.00,,,0.00,124.000000,,2013-02-11 23:52:00,
2013-02-11 16:21:00,26.0,23.0,-100.00,SSE,164,0.0,3.0,89,0.00,,,0.00,96.000000,,2013-02-12 00:21:00,
2013-02-11 16:32:00,26.0,23.0,-100.00,SSE,164,0.0,3.0,89,0.00,,,0.00,96.000000,,2013-02-12 00:32:00,
2013-02-11 16:42:00,26.0,23.0,-100.00,SSE,164,0.0,3.0,89,0.00,,,0.00,96.000000,,2013-02-12 00:42:00,
2013-02-11 16:51:00,26.0,23.0,-100.00,SSE,164,0.0,3.0,89,0.00,,,0.00,96.000000,,2013-02-12 00:51:00,
2013-02-11 17:21:00,25.0,23.0,-100.00,SSW,201,0.0,3.0,93,0.00,,,0.00,32.000000,,2013-02-12 01:21:00,
2013-02-11 17:31:00,25.0,23.0,-100.00,SSW,201,0.0,3.0,93,0.00,,,0.00,32.000000,,2013-02-12 01:31:00,
2013-02-11 17:41:00,25.0,23.0,-100.00,SSW,201,0.0,3.0,93,0.00,,,0.00,32.000000,,2013-02-12 01:41:00,
2013-02-11 17:51:00,25.0,23.0,-100.00,SSW,201,0.0,3.0,93,0.00,,,0.00,32.000000,,2013-02-12 01:51:00,
2013-02-11 18:21:00,24.0,23.0,-100.00,SE,141,0.0,0.0,96,0.00,,,0.00,0.000000,,2013-02-12 02:21:00,
2013-02-11 18:31:00,24.0,23.0,-100.00,SE,141,0.0,0.0,96,0.00,,,0.00,0.000000,,2013-02-12 02:31:00,
2013-02-11 18:41:00,24.0,23.0,-100.00,SE,141,0.0,0.0,96,0.00,,,0.00,0.000000,,2013-02-12 02:41:00,
2013-02-11 18:52:00,24.0,23.0,-100.00,SE,141,0.0,0.0,96,0.00,,,0.00,0.000000,,2013-02-12 02:52:00,
2013-02-11 19:21:00,24.0,23.0,-100.00,NNE,26,0.0,0.0,97,0.00,,,0.00,0.000000,,2013-02-12 03:21:00,
2013-02-11 19:31:00,24.0,23.0,-100.00,NNE,26,0.0,0.0,97,0.00,,,0.00,0.000000,,2013-02-12 03:31:00,
2013-02-11 19:41:00,24.0,23.0,-100.00,NNE,26,0.0,0.0,97,0.00,,,0.00,0.000000,,2013-02-12 03:41:00,
2013-02-11 19:51:00,24.0,23.0,-100.00,NNE,26,0.0,0.0,97,0.00,,,0.00,0.000000,,2013-02-12 03:51:00,
2013-02-11 20:11:00,24.0,23.0,-100.00,NW,319,0.0,3.0,97,0.00,,,0.00,0.000000,,2013-02-12 04:11:00,
2013-02-11 20:21:00,24.0,23.0,-100.00,NW,319,0.0,3.0,97,0.00,,,0.00,0.000000,,2013-02-12 04:21:00,
2013-02-11 20:31:00,24.0,23.0,-100.00,NW,319,0.0,3.0,97,0.00,,,0.00,0.000000,,2013-02-12 04:31:00,
2013-02-11 20:41:00,24.0,23.0,-100.00,NW,319,0.0,3.0,97,0.00,,,0.00,0.000000,,2013-02-12 04:41:00,
2013-02-11 20:51:00,24.0,23.0,-100.00,NW,319,0.0,3.0,97,0.00,,,0.00,0.000000,,2013-02-12 04:51:00,
2013-02-11 21:21:00,24.0,23.0,-100.00,NW,307,0.0,3.0,96,0.00,,,0.00,0.000000,,2013-02-12 05:21:00,
2013-02-11 21:31:00,24.0,23.0,-100.00,NW,307,0.0,3.0,96,0.00,,,0.00,0.000000,,2013-02-12 05:31:00,
2013-02-11 21:42:00,24.0,23.0,-100.00,NW,307,0.0,3.0,96,0.00,,,0.00,0.000000,,2013-02-12 05:42:00,
2013-02-11 21:52:00,24.0,23.0,-100.00,NW,307,0.0,3.0,96,0.00,,,0.00,0.000000,,2013-02-12 05:52:00,
2013-02-11 22:12:00,24.0,23.0,-100.00,WNW,283,0.0,0.0,96,0.00,,,0.00,0.000000,,2013-02-12 06:12:00,
2013-02-11 22:21:00,24.0,23.0,-100.00,WNW,283,0.0,0.0,96,0.00,,,0.00,0.000000,,2013-02-12 06:21:00,
2013-02-11 22:31:00,24.0,23.0,-100.00,WNW,283,0.0,0.0,96,0.00,,,0.00,0.000000,,2013-02-12 06:31:00,
2013-02-11 22:42:00,24.0,23.0,-100.00,WNW,283,0.0,0.0,96,0.00,,,0.00,0.000000,,2013-02-12 06:42:00,
2013-02-11 22:51:00,24.0,23.0,-100.00,WNW,283,0.0,0.0,96,0.00,,,0.00,0.000000,,2013-02-12 06:51:00,
2013-02-11 23:21:00,24.0,23.0,-100.00,West,276,0.0,0.0,95,0.00,,,0.00,0.000000,,2013-02-12 07:21:00,
2013-02-11 23:31:00,24.0,23.0,-100.00,West,276,0.0,0.0,95,0.00,,,0.00,0.000000,,2013-02-12 07:31:00,
2013-02-11 23:41:00,24.0,23.0,-100.00,West,276,0.0,0.0,95,0.00,,,0.00,0.000000,,2013-02-12 07:41:00,
2013-02-11 23:51:00,24.0,23.0,-100.00,West,276,0.0,0.0,95,0.00,,,0.00,0.000000,,2013-02-12 07:51:00,